Погода в Владикавказе

Погода в Владикавказе : погода сейчас, прогноз погоды и архив. Всё, что Вы хотите узнать о погоде в Владикавказе!

Поиск расширенной информации на нашем сайте:

Другие новости

Новости СМИ2

Главная страница сайта

Новости сайта

03.07.2017

Напоминаем, что на нашем специализированном сайте Метеоцентр.Азия вы можете получить высокодетализированные автоматические прогнозы погоды по пунктам России, СНГ и мира в авиационном формате (включающие направление и скорость ветра, видимость, явления погоды, количество и форму облачности, нижнюю и верхнюю границу облачности).

Рекомендуем: Интернет магазин вышивки и вязания пряжа http://www.kudel.ru.

Погода в Владикавказе - сегодня

Время (UTC), дата Ветер
(°,м/с) 
Видим.   Явления Облачность Т
(°С)
Тd
(°С)
f(%) Тe
(°С)
Pmin
(гПа)
dP
(гПа)
Po
(мм)
O2
(г/м3)
Тmin Tmax R s Состояние
почвы
00 16.02.18 240 (ЮЗ) 2000 м  дымка  10/10 600 м 
[Sc]
-0.4 -3 83 1029.7  -0.2  708  286           
03 16.02.18 320 (СЗ) 2000 м  дымка  10/10 600 м 
[St]
-0.6 -2.6 86 1029.9  0.1  708  286  -0.6         
06 16.02.18 310 (СЗ) 2000 м  дымка  10/10 300 м 
[St]
-0.5 -2.7 85 1030.6  0.6  708  286  -0.9         
09 16.02.18 250 (З) 2000 м  дымка  10/10 300 м 
[St]
+0.4 -2.5 81 +1  1029.2  -1  708  285           
12 16.02.18 330 (СЗ) 2000 м  дымка  10/10 300 м 
[St]
+0.7 -2.7 78 +1  1028.8  -0.2  707  285           
15 16.02.18 290 (З) 2000 м  дымка  10/10 300 м 
[St]
-0 -2.6 83 +1  1028.9  -0.1  707  285    +1.2       
18 16.02.18 310 (СЗ) 2000 м  дымка  10/10 300 м 
[St]
-0.2 -2.4 85 1028  -0.9  707  285           
21 16.02.18 240 (ЮЗ) 2000 м  дымка  10/10 300 м 
[St]
-0.3 -2.5 85 1027.1  -0.9  706  285           
00 17.02.18 тихо ()   2000 м  дымка  10/10 300 м 
[St]
-0.3 -3 82 -0  1026.3  -0.7  706  285           
03 17.02.18 140 (ЮВ) 2000 м  дымка  10/10 300 м 
[St]
-0.7 -3.2 83 1025.2  -1  705  285  -0.7         
06 17.02.18 170 (Ю) 2000 м  дымка  10/10 300 м 
[St]
-0.4 -3.3 81 1024.5  -0.6  704  284  -0.8         
09 17.02.18 340 (С) 10 км    10/10 300 м 
[Sc]
+1.8 -2.6 73 +3  1022.5  -1.2  703  282           
12 17.02.18 020 (С) 10 км    4/1 1500 м средняя, верхняя 
[Sc|Ac lent|Cc]
+4.5 -1.9 63 +5  1020.1  -1.4  702  278           
15 17.02.18 270 (З) 10 км    10/10 300 м 
[St]
+2.4 -1.6 75 +2  1021.2  0.4  703  281    +4.8       
18 17.02.18 090 (В) 10 км    10/10 300 м 
[St]
+1.9 -1.4 79 +3  1020.5  -0.7  702  281           
21 17.02.18 290 (З) 4000 м  дымка  10/10 300 м 
[St]
+1.4 -1.5 81 +1  1019.9  -0.7  701  281           
00 18.02.18 180 (Ю) 4000 м  дымка  9/9 300 м 
[St]
+0.4 -2.2 83 +1  1018.7  -1.4  701  282           
03 18.02.18 тихо ()   4000 м  дымка  10/10 300 м 
[St]
+0.2 -1.9 86 1020  -1.4  701  282  -0.9         
06 18.02.18 тихо ()   10 км    10/0 средняя 
[Ac As]
+2.8 -1 76 +3  1020.1  0.9  702  280           
09 18.02.18 300 (СЗ) 10 км    9/9 600 м 
[Sc]
+4.3 -0.1 73 +4  1018.7  -0.8  701  278           
12 18.02.18 310 (СЗ) 10 км    10/10 600 м 
[Sc]
+4.4 +0.5 76 +4  1019.4  0.7  702  278           
15 18.02.18 280 (З) 4000 м  дымка  10/10 300 м 
[Sc]
+3.7 -0.3 75 +5  1020.1  0.4  702  279    +5.7       
18 18.02.18 290 (З) 4000 м  дымка  10/10 300 м 
[St]
+2.9 +0.3 83 +4  1020.9  0.6  703  280           
21 18.02.18 080 (В) 4000 м  дымка  10/10 300 м 
[St]
+2.7 +0.3 84 +3  1020.1  -0.9  702  280           
00 19.02.18 040 (СВ) 4000 м  дымка  10/10 300 м 
[St]
+2.3 -0.2 84 +3  1019.7  -0.4  702  280           
Время (UTC), дата Ветер
(°,м/с) 
Видим.   Явления Облачность Т
(°С)
Тd
(°С)
f(%) Тe
(°С)
Pmin
(гПа)
dP
(гПа)
Po
(мм)
O2
(г/м3)
Тmin Tmax R s Состояние
почвы

Для получения пояснительной информации подведите курсор к названию столбца.

ПОГОДА в Владикавказе - архив

Всё, что Вы хотите узнать о погоде в Владикавказе - удобно и подробно!

Выберите нужную дату (начиная с 1 января 2015* года) и нажмите кнопку "Найти".
Будут отображены архивные сводки погоды по пункту Владикавказ, начиная с указанной даты.


Отображать данные в формате CSV (для использования в таблицах Excel)


Внимание! Наш архив погоды предназначен исключительно для личного некоммерческого использования в познавательных целях. Если Вам необходимы официальные справки о состоянии погоды (для производственных, юридических, коммерческих и т.п. целей), обращайтесь в органы Росгидромета.

*Примечание: данная дата относится к архиву по метеостанциям СССР (Россия, СНГ, Балтия).
Архив по метеостанциям Зарубежной Европы и Азии (кроме Китая) хранится 10 дней, по другим регионам земного шара (Китай, Африка, Америка, Австралия, Океания) - 1 день.

Владикавказ - район местоположения метеостанции


Название, широта, долгота, высота метеостанции:
Владикавказ 43.1°ш. 44.6°д. 703 м над ур. моря [Российская Федерация]

Дополнительная информация

В oтличие oт бoльшинства пoгoдных сайтoв мы публикуем пoдрoбную метеoинфoрмацию в детальнoм прoфессиoнальнoм фoрмате.

Характеристики температуры и влажнoсти вoздуха измеряются на высoте 2 м в тени вдали oт зданий и деревьев.
Скoрoсть ветра измеряется на высoте 10 м (на урoвне рoста челoвека скoрoсть ветра ниже в 1.5-2 раза). Если метеoстанция нахoдится в гoрoде или в лесу, тo скoрoсть ветра занижена на 2-4 м/с пo сравнению с oткрытым местoм. Скoрoсть ветра над акватoриями крупных рек и oзёр, а также на вершинах хoлмoв на 2-5 м/с выше, чем в oбычных услoвиях.
Атмoсфернoе давление в разных тoчках местнoсти мoжет значительнo oтличаться oт давления на метеoстанции, в зависимoсти oт услoвий рельефа (при пoдъёме на 10 м давление пoнижается примернo на 1 мм рт.ст.).